Location: Angwan Shehu
(11.2514°N, 7.4613°E)
Time: 01:43:04
(UTC+00:00)

Tiros 1 - Pass Details

Date: 27 April 2021
Orbit: 630 x 664 km, 48.4° (Epoch: 06 May)

Event Time Altitude Azimuth Distance (km) Brightness Sun altitude
Rises 04:10:02 0° 235° (SW) 2,975 - -15.7°
Reaches altitude 10° 04:12:30 10° 243° (WSW) 2,059 - -15.1°
Exits shadow 04:14:35 23° 259° (W) 1,378 8.2 -14.6°
Maximum altitude 04:16:55 38° 312° (NW) 990 7.8 -14.1°
Drops below altitude 10° 04:21:18 10° 20° (NNE) 2,039 10.2 -13.0°
Sets 04:23:46 0° 28° (NNE) 2,943 11.3 -12.5°
